Location: ???????
(54.9167°N, 38.4333°E)
Time: 12:56:43
(UTC+00:00)

Daily predictions for brighter satellites

Satellite Brightness Start Highest point End
(mag) Time Altitude Azimuth Time Altitude Azimuth Time Altitude Azimuth
Cosmos 614 Rocket 4.3 18:33:25 10° S 18:38:22 46° ESE 18:43:22 10° NE
Cosmos 1818 4.3 18:33:53 10° S 18:38:43 34° ESE 18:43:36 10° ENE
Meteor 1-27 Rocket 3.7 18:34:17 10° S 18:39:48 76° E 18:45:25 10° NNE
Lacrosse 4 Rocket 1.7 18:37:02 10° NW 18:41:04 60° SW 18:45:09 10° SSE
Cosmos 1340 Rocket 2.8 18:40:25 10° S 18:44:24 75° E 18:48:22 10° NNE
Resurs 01 Rocket 4.3 18:44:12 10° WSW 18:46:35 14° W 18:48:59 10° NW
Okean O Rocket 4.3 18:46:28 10° SW 18:49:08 16° W 18:51:48 10° NW
SL-16 R/B 4.4 18:44:58 10° NNW 18:49:12 21° NNE 18:53:25 10° ENE
Cosmos 1656 3.8 18:44:20 10° NW 18:49:48 75° WSW 18:55:17 10° SSE
Cosmos 1833 Rocket 3.9 18:45:38 10° SSE 18:49:54 23° ESE 18:54:12 10° NE
Terra 2.3 18:47:03 10° S 18:51:43 59° WSW 18:56:23 10° NNW
Cosmos 1805 3.2 18:50:10 10° NNW 18:53:54 82° WSW 18:57:36 10° S
H-2A R/B 4.3 18:51:11 10° ESE 18:54:25 21° ENE 18:57:41 10° N
Cosmos 1743 Rocket 4.3 18:51:38 10° NNW 18:55:57 51° W 19:00:15 10° S
Cosmos 1766 4.0 18:53:13 10° N 18:56:47 39° ENE 19:00:19 10° SE
Cosmos 1603 4.2 18:54:36 10° SW 19:00:17 67° NW 19:06:02 10° NNE
Cosmos 1428 Rocket 4.5 19:00:09 10° S 19:06:13 71° E 19:12:19 10° NNE
Cosmos 2360 4.3 19:01:34 10° NW 19:07:20 86° SW 19:13:00 10° SSE
Okean 1 4.4 19:04:00 10° SW 19:07:43 43° WNW 19:11:29 10° N
Landsat 5 3.4 19:06:52 10° NNE 19:10:35 54° ESE 19:14:22 10° S
Cosmos 1470 3.9 19:07:47 10° N 19:11:04 29° ENE 19:14:18 10° SE
Cosmos 1151 Rocket 3.2 19:08:37 10° SSW 19:12:58 79° WNW 19:17:19 10° N
BREEZE-M DEB (TANK) 4.5 19:09:45 10° WSW 19:13:46 56° SSE 19:30:18 10° E
USA 281 3.3 19:07:28 10° SSE 19:14:04 79° WSW 19:20:44 10° NNW
Cosmos 1975 3.0 19:10:32 10° NNW 19:14:27 67° W 19:18:21 10° S
Meteor 1-18 Rocket 4.5 19:11:25 10° S 19:17:15 62° E 19:23:04 10° NNE
NOSS 3-3 (A) 4.1 19:12:20 10° SSW 19:17:41 50° SE 19:23:58 10° NE
MOS 1 Rocket 4.3 19:16:01 10° S 19:21:08 51° W 19:26:26 10° NNW
Cosmos 1092 Rocket 4.1 19:18:14 10° S 19:24:30 75° E 19:30:52 10° NNE
Cosmos 220 Rocket 4.1 19:23:15 10° SSW 19:27:35 82° WNW 19:31:54 10° NNE
Cosmos 1908 4.4 19:24:48 10° N 19:27:59 29° ENE 19:30:53 12° SE
ARIANE 5 R/B 2.9 19:25:29 12° SE 19:29:22 56° ENE 19:33:36 10° N
NOSS 3-4 (A) 3.8 19:24:33 10° NW 19:31:10 84° SW 19:38:50 10° SE
NOSS 3-4 (C) 3.8 19:24:39 10° NW 19:31:16 84° SW 19:38:57 10° SE
Cosmos 1328 Rocket 3.5 19:28:25 10° S 19:32:43 75° E 19:37:02 10° NNE
CZ-2C R/B 4.4 19:29:49 10° NNE 19:34:00 37° E 19:37:29 13° SSE
Cosmos 1140 Rocket 4.2 19:34:28 12° SSE 19:38:50 37° ESE 19:43:36 10° NE
OPS 6432 4.5 19:39:09 10° NW 19:42:25 66° NE 19:45:18 11° ESE
Cosmos 1515 Rocket 3.9 19:40:01 14° SSE 19:43:34 48° E 19:47:44 10° NNE
Cosmos 2322 Rocket 4.2 19:39:54 10° NNW 19:44:32 25° NNE 19:49:10 10° E
Cosmos 1697 Rocket 2.8 19:38:59 10° NW 19:44:36 69° WSW 19:49:25 14° SSE
Cosmos 1626 2.1 19:45:19 10° SSW 19:48:31 65° WNW 19:51:45 10° N
Cosmos 1470 Rocket 3.8 19:46:21 10° NNW 19:50:47 68° W 19:54:36 13° S
NOSS 3-3 (C) 3.9 19:45:41 10° SW 19:51:14 71° SE 19:57:55 10° NE
Cosmos 1869 Rocket 4.1 19:48:08 10° N 19:52:23 47° ENE 19:55:52 15° SE
Cosmos 1633 Rocket 4.0 19:49:29 10° NNW 19:53:41 43° W 19:57:51 10° SSW
Cosmos 1707 3.4 19:51:54 16° SSE 19:54:19 37° E 19:57:43 10° NNE
Cosmos 1980 Rocket 2.3 19:49:04 10° NNW 19:54:50 80° NE 19:59:53 13° SE
Cosmos 1300 4.5 19:53:01 10° NNE 19:55:45 20° ENE 19:58:29 10° ESE
USA 234 3.5 19:50:56 10° E 19:57:29 75° N 20:04:01 10° W
Cosmos 2333 Rocket 4.3 19:54:56 10° NNW 19:59:37 25° NNE 20:04:18 10° E
Cosmos 1441 Rocket 3.6 19:57:16 10° N 20:00:46 48° ENE 20:03:19 17° SE
Cosmos 44 Rocket 4.2 19:59:14 10° NW 20:03:44 36° WSW 20:07:10 15° S
Lacrosse 5 rocket 1.3 20:01:41 10° WNW 20:05:53 64° SSW 20:09:27 13° SE
Cosmos 540 Rocket 3.9 20:01:15 10° NNW 20:06:22 57° ENE 20:10:59 13° SE
Cosmos 1763 Rocket 3.6 20:03:07 10° NNW 20:08:28 75° ENE 20:12:54 15° SE
Cosmos 468 Rocket 4.5 20:05:42 10° NNW 20:10:57 58° ENE 20:15:39 13° SE
Cosmos 1066 Rocket 4.4 20:05:21 10° SSW 20:11:13 82° WNW 20:17:07 10° NNE
Meteor 2-12 Rocket 4.5 20:06:04 12° S 20:11:53 85° ESE 20:18:07 10° NNE
Cosmos 1842 3.0 20:10:07 17° S 20:12:53 77° E 20:16:35 10° NNE
Cosmos 1674 2.4 20:11:20 16° S 20:14:00 89° E 20:17:31 10° NNE
Cosmos 1933 Rocket 3.7 20:11:23 10° NNW 20:15:45 71° W 20:19:05 17° S
Cosmos 407 Rocket 3.8 20:16:12 15° S 20:20:22 52° ESE 20:25:26 10° NE
GP-B 4.3 20:16:39 10° NNE 20:20:35 30° E 20:23:40 14° SE
MINOTAUR 4 R/B 3.5 20:18:37 10° NNE 20:21:36 87° WNW 20:23:36 19° SSW
Cosmos 1818 3.9 20:16:33 10° WSW 20:22:00 69° NW 20:27:31 10° NE
Cosmos 2369 3.7 20:16:29 10° NW 20:22:15 87° WSW 20:26:58 16° SSE
Cosmos 1607 4.0 20:16:44 10° SSW 20:23:08 67° SE 20:29:35 10° NE
KORONAS-FOTON 3.7 20:20:40 17° S 20:23:25 90° ESE 20:27:10 10° NNE
ATLAS 2AS CENTAUR R/B 3.8 20:21:00 10° WNW 20:27:48 47° NNE 20:34:19 10° E
H-2A R/B 2.7 20:25:54 18° S 20:28:57 67° WSW 20:33:16 10° NNW
SAR-Lupe-3 4.5 20:30:08 21° SSE 20:32:22 81° WSW 20:35:54 10° NNW
Cosmos 2219 Rocket 4.3 20:28:06 10° NNW 20:32:43 25° NNE 20:37:19 10° E
Cosmos 1833 Rocket 2.8 20:27:35 10° SW 20:33:13 83° NW 20:38:53 10° NNE
SL-16 R/B 2.9 20:29:05 10° NNW 20:34:39 51° NE 20:40:10 10° ESE
COSMOS 2406 4.0 20:33:18 17° SSE 20:37:03 36° ESE 20:42:16 10° NE
ALOS 2 2.6 20:34:53 19° SSE 20:38:02 86° ENE 20:42:28 10° NNW
Meteor 1-12 Rocket 4.4 20:33:15 10° NNW 20:39:12 79° ENE 20:43:55 17° SSE
S3M 4.2 20:33:01 10° NNW 20:39:25 74° W 20:44:31 17° S
Cosmos 1758 3.4 20:40:27 10° N 20:44:17 66° ENE 20:46:48 20° SSE
Cosmos 2082 Rocket 2.6 20:42:09 17° S 20:46:16 48° ESE 20:51:45 10° NE
Cosmos 1470 4.0 20:43:09 10° NNW 20:46:26 30° W 20:48:57 15° SSW
Cosmos 2360 Rocket 3.5 20:41:31 10° NNW 20:46:50 38° NE 20:52:07 10° ESE
Cosmos 2251 Rocket 3.5 20:44:25 15° SSW 20:48:49 76° ESE 20:54:08 10° NNE
Meteor 2-10 Rocket 3.8 20:47:36 10° NNW 20:53:28 88° W 20:57:48 18° S
Cosmos 1707 Rocket 4.2 20:51:02 19° SSE 20:53:52 44° E 20:58:07 10° NNE
GEOS 3 Rocket 3.6 20:49:11 10° NE 20:54:25 87° SE 20:59:34 10° SW
SL-08 ROCKET BODY 4.5 20:50:51 16° S 20:55:56 89° W 21:02:09 10° N
Cosmos 724 4.3 20:53:13 10° SW 20:59:07 88° SE 21:04:59 10° NE
Cosmos 2315 Rocket 4.1 20:53:32 10° NNW 20:59:50 76° W 21:04:44 18° S
Cosmos 1908 4.5 20:59:44 10° NNW 21:02:51 28° W 21:05:04 16° SW
Meteor 1-13 Rocket 4.4 20:57:59 15° SSW 21:03:00 78° WNW 21:08:53 10° NNE
ARIANE 5 R/B 4.3 21:02:57 11° SW 21:06:05 22° W 21:09:30 10° NW
Okean 3 4.3 21:05:01 19° SSE 21:07:29 38° E 21:11:20 10° NNE
Cosmos 2237 4.3 21:03:41 10° NNW 21:09:28 85° NE 21:14:36 13° SE
H-2A R/B 2.8 21:05:58 10° NNE 21:10:12 43° E 21:12:54 20° SSE
Cosmos 2285 Rocket 4.2 21:04:13 10° SW 21:10:32 73° WNW 21:16:57 10° NNE
Meteor 1-4 Rocket 4.3 21:10:32 12° ESE 21:11:51 16° E 21:13:44 10° NE
BREEZE-M DEB (TANK) 4.1 21:15:41 10° SW 21:18:55 44° SSE 21:28:00 10° E
Cosmos 1908 Rocket 4.3 21:15:26 10° N 21:19:44 47° ENE 21:23:12 15° SE
Cosmos 1140 Rocket 4.4 21:15:27 10° SW 21:20:30 47° NW 21:25:34 10° NNE
Cosmos 2278 3.7 21:14:48 10° NW 21:20:33 77° WSW 21:25:10 16° SSE
Cosmos 1346 Rocket 2.7 21:17:40 10° NNW 21:21:35 80° WSW 21:23:58 22° S
Cosmos 2266 Rocket 4.4 21:17:38 13° SSW 21:23:09 58° WNW 21:29:25 10° N
SL-24 R/B 4.4 21:18:35 10° NNE 21:23:19 81° ESE 21:27:08 19° SSW
Cosmos 1733 Rocket 3.2 21:19:04 10° NNW 21:23:23 64° W 21:26:12 21° S
SL-4 R/B 4.3 21:27:35 10° SE 21:27:35 10° SE 21:27:41 10° SE
Cosmos 1707 4.5 21:26:27 10° WSW 21:29:27 24° WNW 21:32:28 10° N
Cosmos 2322 Rocket 2.4 21:23:51 10° NNW 21:29:32 73° NE 21:35:13 10° SE
Helios 1A Rocket 4.3 21:26:26 10° SE 21:29:51 31° ENE 21:33:14 10° N
Cosmos 1400 Rocket 2.9 21:27:50 20° SSW 21:30:30 71° WNW 21:34:28 10° N
Cosmos 1300 3.2 21:27:17 10° NNW 21:30:42 43° W 21:32:38 22° SSW
Cosmos 841 Rocket 3.5 21:26:50 10° NNW 21:32:05 74° WSW 21:36:05 18° SSE
BREEZE-M DEB (TANK) 1.5 21:28:36 10° WSW 21:32:28 56° S 21:34:30 10° E
Meteor 1-21 4.3 21:28:43 19° S 21:32:58 78° E 21:38:47 10° NNE
Cosmos 1980 Rocket 3.6 21:33:47 10° NW 21:38:15 24° WSW 21:41:37 14° SSW
USA 234 3.2 21:33:56 10° ESE 21:40:31 83° SSW 21:47:07 10° WNW
Orbus 7S? 2.6 21:37:20 10° WSW 21:40:46 88° NNW 21:43:29 10° ENE
Lacrosse 5 rocket 2.9 21:40:43 10° W 21:43:36 18° SW 21:44:16 18° SW
Okean 1-7 3.3 21:41:35 20° S 21:44:25 57° E 21:48:41 10° NNE
Cosmos 2333 Rocket 2.5 21:39:10 10° NNW 21:44:54 70° NE 21:50:39 10° SE
Cosmos 2228 Rocket 3.4 21:41:50 18° SSW 21:45:05 61° WNW 21:49:37 10° N
Cosmos 1242 Rocket 4.3 21:47:51 11° SE 21:49:23 16° E 21:51:15 10° NE
Cosmos 1356 Rocket 3.5 21:51:21 20° SSW 21:54:08 71° WNW 21:58:20 10° N
Cosmos 1953 2.2 21:50:35 10° NNW 21:54:30 81° W 21:57:01 21° S
SL-27 R/B 4.3 21:56:27 12° SE 21:57:37 14° ESE 21:59:12 10° ENE
GP-B 4.0 21:53:45 10° NNW 21:57:52 39° W 22:00:59 16° SW
Genesis I 3.9 21:59:24 22° S 22:00:58 32° SE 22:04:11 10° ENE
SL-14 R/B 4.2 22:01:00 15° SW 22:03:45 38° WNW 22:07:21 10° N
Cosmos 1703 Rocket 3.9 22:01:24 19° S 22:04:31 61° E 22:08:57 10° NNE
Cosmos 1300 Rocket 3.9 22:02:00 10° N 22:06:17 59° ENE 22:10:02 13° SSE
Aureole 3 3.4 22:04:37 21° SW 22:06:25 47° WNW 22:09:46 10° N
Cosmos 1455 2.0 22:03:56 10° NNW 22:07:23 66° W 22:09:28 22° S
Cosmos 1862 Rocket 4.1 22:05:04 17° SW 22:08:14 49° WNW 22:12:30 10° N
Cosmos 676 Rocket 4.2 22:04:33 15° SW 22:09:04 70° WNW 22:14:25 10° NNE
Cosmos 1954 Rocket 4.4 22:05:17 13° SW 22:10:03 60° WNW 22:15:19 10° NNE
SJ 16-02 2.6 22:08:51 15° SSE 22:11:47 30° ESE 22:15:34 10° NE
RESURS DK-1 2.2 22:07:44 10° NW 22:11:50 79° SW 22:15:34 12° SSE
Cosmos 1814 Rocket 4.0 22:09:06 10° NNW 22:14:22 86° WSW 22:19:32 11° SSE
Cosmos 2219 Rocket 2.5 22:11:57 10° NNW 22:17:38 72° NE 22:23:18 10° SE
SL-16 R/B 2.8 22:13:24 10° NW 22:18:42 41° WSW 22:22:42 17° S
ATLAS 2AS CENTAUR R/B 2.7 22:12:21 10° NW 22:19:19 86° SW 22:26:01 10° SE
COSMOS 2406 3.8 22:15:29 10° SW 22:21:11 57° NW 22:26:52 10° NNE
Cosmos 2322 4.4 22:22:01 10° NNW 22:27:40 57° NE 22:33:16 10° SE
Cosmos 2082 Rocket 3.1 22:24:57 10° WSW 22:30:27 45° NW 22:35:57 10° NNE
Cosmos 2360 Rocket 2.3 22:25:33 10° NW 22:31:09 61° WSW 22:36:34 11° SSE
Cosmos 2333 4.2 22:27:37 10° NW 22:33:22 76° WSW 22:39:07 10° SSE
Cosmos 2242 Rocket 4.2 22:30:58 14° SSE 22:34:40 50° E 22:39:04 10° NNE
Cosmos 839 Rocket 4.2 22:27:18 10° NW 22:34:47 69° SW 22:41:02 10° SSE
Cosmos 1745 Rocket 4.0 22:30:04 16° S 22:35:17 88° W 22:41:41 10° N
Cosmos 405 Rocket 4.4 22:33:56 10° N 22:37:10 29° ENE 22:40:25 10° SE
SL-16 R/B 4.1 22:31:55 10° ESE 22:37:33 37° NE 22:43:12 10° N
CZ-2C R/B 3.5 22:34:56 10° SE 22:39:54 49° ENE 22:44:57 10° N
Okean 2 4.0 22:38:45 16° SW 22:41:41 44° WNW 22:45:32 10° N
Meteor 1-4 Rocket 3.0 22:42:38 17° SW 22:44:32 36° WNW 22:47:20 10° N
USA 267 3.5 22:38:49 10° ENE 22:45:12 52° SE 22:51:04 12° SW
H-2A R/B 3.4 22:41:52 10° N 22:45:48 31° WNW 22:49:39 10° WSW
Nadezhda 1 Rocket 4.5 22:42:48 10° NNW 22:48:55 49° W 22:54:10 14° SSW
Cosmos 2237 Rocket 3.9 22:45:45 10° NNW 22:51:03 37° NE 22:56:18 10° ESE
Cosmos 1315 Rocket 3.4 22:49:16 15° SW 22:52:16 47° WNW 22:56:07 10° N
Cosmos 1570 Rocket 4.1 22:47:22 10° NNW 22:52:43 88° ENE 22:58:04 10° SSE
COSMOS 2428 3.1 22:48:26 10° NNW 22:54:08 68° NE 22:59:48 10° SE
Cosmos 1782 Rocket 4.2 22:53:41 10° NNW 22:57:47 41° W 23:01:04 15° SSW
Cosmos 968 Rocket 3.5 22:56:50 14° SSW 23:01:13 86° WNW 23:06:25 10° NNE
Kosmos-1783 4.5 22:57:57 10° WNW 23:01:34 58° SW 23:09:05 10° SE
H-2A R/B 4.3 22:58:30 10° NNE 23:02:18 41° E 23:06:04 10° S
Helios 1A Rocket 3.6 23:01:28 15° SSW 23:04:08 34° W 23:07:40 10° NNW
Cosmos 2208 Rocket 4.1 22:59:36 10° NNW 23:04:56 86° ENE 23:10:10 10° SSE
SL-4 R/B 3.1 23:02:20 15° SSW 23:05:14 31° SSE 23:09:09 10° E
Cosmos 2098 Rocket 3.9 23:00:56 10° NNW 23:06:32 85° W 23:12:56 10° S
Cosmos 1892 4.4 23:05:53 10° SE 23:08:45 24° E 23:11:38 10° NE
EXPRESS MD2 3.7 23:10:58 16° SSW 23:12:32 28° SSE 23:15:54 10° E
Cosmos 2322 Rocket 3.3 23:08:28 10° NW 23:13:07 27° WSW 23:17:17 12° SSW
MOZ.5/SAFIR/RUBIN 5/SL-8 4.1 23:10:18 11° S 23:14:42 52° W 23:19:18 10° NNW
Resurs 1-4 Rocket 2.8 23:10:06 10° NNE 23:15:14 49° E 23:20:19 10° S
DNEPR-1 R/B 4.5 23:08:38 10° NW 23:15:51 73° SW 23:21:37 10° SE
Cosmos 1408 2.3 23:15:08 15° SSW 23:17:24 57° WNW 23:20:23 10° N
Meteor 1-24 Rocket 4.0 23:13:51 10° S 23:19:51 75° E 23:25:44 10° NNE
Cosmos 1242 Rocket 3.1 23:19:14 13° SW 23:21:23 32° WNW 23:24:02 10° N
CZ-2D R/B 2.7 23:17:41 10° NNE 23:23:04 54° E 23:28:22 10° S
USA 234 3.6 23:17:56 10° SSE 23:24:04 41° SW 23:30:13 10° WNW
Cosmos 2297 Rocket 4.4 23:22:48 10° SE 23:26:28 18° E 23:30:10 10° ENE
OPS 8737 4.2 23:24:10 10° WNW 23:27:02 49° SW 23:29:59 10° SSE
Cosmos 2333 Rocket 3.2 23:23:57 10° NW 23:28:47 29° WSW 23:33:36 10° SSW
CRYOSAT 2 4.4 23:24:33 10° N 23:29:29 86° E 23:34:23 10° S
SL-27 R/B 2.7 23:27:58 12° SW 23:30:21 40° WNW 23:33:02 10° NNE
Cosmos 1703 3.2 23:29:18 12° SSW 23:32:45 68° WNW 23:36:29 10° N
Cosmos 1709 Rocket 4.5 23:30:45 10° SSW 23:36:51 52° WNW 23:43:07 10° N
Genesis I 3.9 23:33:46 10° WSW 23:37:11 45° NW 23:40:40 10° NE
IDEFIX/ARIANE 42P 2.7 23:31:59 10° NNE 23:37:18 87° ESE 23:42:35 10° SSW
Cosmos 1455 Rocket 4.5 23:35:23 10° N 23:39:32 39° ENE 23:43:41 10° SE
NOSS 5 (C) 4.2 23:37:09 10° NW 23:40:26 88° SW 23:43:36 10° SE
ADEOS II 2.7 23:39:11 10° NNE 23:44:21 55° E 23:49:29 10° S
RESURS DK-1 4.4 23:47:07 10° WNW 23:48:51 12° WSW 23:50:35 10° SW
CZ-4C R/B 4.2 23:47:18 10° SE 23:49:23 13° ESE 23:51:38 10° E
SJ 16-02 2.1 23:45:53 10° SW 23:50:01 43° WNW 23:54:10 10° NNE
Cosmos 1825 2.3 23:49:09 10° S 23:52:32 62° E 23:55:57 10° NNE
Cosmos 2181 Rocket 4.4 23:47:07 10° NNW 23:53:09 47° W 23:59:04 10° SSW
Cosmos 1674 Rocket 3.6 23:50:54 10° S 23:55:20 89° WNW 23:59:47 10° NNE
